SCP
0 0 0 0 0 0 0 0 0 1 1 2 2 2 1 1 0 0 0 0 0 0 0 0 0 0 0 0 0 0 0 0 0 0 0 0 0 0 0 0 0 0 0 0
0 0 0 0 1 1 1 1 1 1 1 2 2 1 1 0 0 0 0 0 0 0 0 0 0 0 0 0 0 0 0 0 0 0 0 0 0 0 0 0 0 0 0 0
0 0 0 0 1 1 1 1 1 1 1 1 1 1 0 0 0 0 0 0 0 0 0 0 0 0 0 0 0 0 0 0 0 0 0 0 0 0 0 0 0 0 0 0
0 0 0 0 1 1 1 1 1 1 1 1 1 0 0 0 0 0 0 0 0 0 0 0 0 0 0 0 0 0 0 0 0 0 0 0 0 0 0 0 0 0 0 0
0 0 0 0 0 0 1 1 1 1 1 0 0 0 0 0 0 0 0 0 0 0 0 0 0 0 0 0 0 0 0 0 0 0 0 0 0 0 0 0 0 0 0 0
0 0 0 0 0 0 0 0 0 0 0 0 0 0 0 0 0 0 0 0 0 0 0 0 0 0 0 0 0 0 0 0 0 0 0 0 0 0 0 0 0 0 0 0
0 0 0 0 0 0 0 0 0 0 0 0 0 0 0 0 0 0 0 0 0 0 0 0 0 0 0 0 0 0 0 0 0 0 0 0 0 0 0 0 0 0 0 0
0 0 0 0 0 0 0 0 0 0 0 0 0 0 0 0 0 0 0 0 0 0 0 0 0 0 0 0 0 0 0 0 0 0 0 0 0 0 0 0 0 0 0 0
0 0 0 0 0 0 0 0 0 0 0 0 0 0 0 0 0 0 0 0 0 0 0 0 0 0 0 0 0 0 0 0 0 0 0 0 0 0 0 0 0 0 0 0
0 0 0 0 0 0 0 0 0 0 0 0 0 0 0 0 0 0 0 0 0 0 0 0 0 0 0 0 0 0 0 0 0 0 0 0 0 0 0 0 0 0 0 0
0 0 0 0 0 0 0 0 0 0 0 0 0 0 0 0 0 0 0 0 0 0 0 0 0 0 0 0 0 0 0 0 0 0 0 0 0 0 0 0 0 0 0 0
0 0 0 0 0 0 0 0 0 0 0 0 0 0 0 0 0 0 0 0 0 0 0 0 0 0 0 0 0 0 0 0 0 0 0 0 0 0 0 0 0 0 0 0
0 0 0 0 0 0 0 0 0 0 0 0 0 0 0 0 0 0 0 0 0 0 0 0 0 0 0 0 0 0 0 0 0 0 0 0 0 0 0 0 0 0 0 0
0 0 0 0 0 0 0 0 0 0 0 0 0 0 0 0 0 0 0 0 0 0 0 0 0 0 0 0 0 0 0 0 0 0 0 0 0 0 0 0 0 0 0 0
0 0 0 0 0 0 0 0 0 0 0 0 0 0 0 0 0 0 0 0 0 0 0 0 0 0 0 0 0 0 0 0 0 0 0 0 0 0 0 0 0 0 0 0
0 0 0 0 0 0 0 0 0 0 0 0 0 0 0 0 0 0 0 0 0 0 0 0 0 0 0 0 0 0 0 0 0 0 0 0 0 0 0 0 0 0 0 0
0 0 0 0 0 0 0 0 0 0 0 0 0 0 0 0 0 0 0 0 0 0 0 0 0 0 0 0 0 0 0 0 0 0 0 0 0 0 0 0 0 0 0 0
0 0 0 0 0 0 0 0 0 0 0 0 0 0 0 0 0 0 0 0 0 0 0 0 0 0 0 0 0 0 0 0 0 0 0 0 0 0 0 0 0 0 0 0
0 0 0 0 0 0 0 0 0 -0 -0 0 0 0 0 0 0 0 0 0 0 0 0 0 0 0 0 0 0 0 0 0 0 0 0 0 0 0 0 0 0 0 0 0
0 0 0 0 0 0 0 0 0 0 0 0 0 0 0 0 0 0 0 0 0 0 0 0 0 0 0 0 0 0 0 0 0 0 0 0 0 0 0 0 0 0 0 0
0 0 0 0 0 0 0 0 0 0 0 0 0 0 0 0 0 0 0 0 0 0 0 0 0 0 0 0 0 0 0 0 0 0 0 0 0 0 0 0 0 0 0 0
0 0 0 0 0 0 0 0 0 0 0 0 0 0 0 0 0 0 0 0 0 0 0 0 0 0 0 0 0 0 0 0 0 0 0 0 0 0 0 0 0 0 0 0
0 0 0 0 0 0 0 -0 -0 0 0 0 0 0 0 0 0 0 0 0 0 0 0 0 0 0 0 0 0 0 0 0 0 0 0 0 0 0 0 0 0 0 0 0
0 0 0 0 0 0 0 -0 -0 -0 0 0 0 0 0 0 0 0 0 0 0 0 0 0 0 0 0 0 0 0 0 0 0 0 0 0 0 0 0 0 0 0 0 0
0 0 0 0 0 0 0 0 0 -0 -0 0 0 0 0 0 0 0 0 0 0 0 0 0 0 0 0 0 0 0 0 0 0 0 0 0 0 0 0 0 0 0 0 0
0 0 0 0 0 0 0 0 0 0 0 0 0 0 0 0 0 0 0 0 0 0 0 0 0 0 0 0 0 0 0 0 0 0 0 0 0 0 0 0 0 0 0 0
0 0 0 0 0 0 0 0 0 0 0 0 0 0 0 0 0 0 0 0 0 0 0 0 0 0 0 0 0 0 0 0 0 0 0 0 0 0 0 0 0 0 0 0
Wind_Speed
2 2 2 3 5 4 2 3 5 6 7 5 4 6 7 7 7 7 7 7 7 7 7 7 7 8 8 8 8 9 10 11 9 8 8 8 7 7 6 5 5 4 4 4
3 4 4 4 7 6 4 3 4 8 5 3 6 7 8 7 7 6 7 7 7 7 7 7 7 7 8 8 7 8 10 9 8 8 8 7 6 6 6 6 5 4 4 3
1 3 3 2 4 2 2 2 2 3 5 8 7 8 6 5 6 7 7 7 6 6 6 6 6 6 8 7 8 9 8 8 7 7 7 6 5 6 5 4 4 4 4 3
1 1 3 3 2 4 6 5 4 8 8 8 9 8 8 7 7 8 7 7 6 6 6 6 6 6 7 7 7 8 7 7 6 6 6 5 5 5 4 3 3 3 3 3
2 2 0 1 1 1 3 3 2 7 9 9 8 7 6 7 8 7 7 7 6 6 6 6 6 6 7 6 6 6 6 5 5 5 5 5 5 4 3 3 3 3 2 3
3 3 4 3 3 1 5 1 2 5 8 8 5 3 2 5 8 8 8 7 7 6 7 6 5 5 6 5 5 5 4 4 4 5 5 4 4 3 3 3 3 3 4 4
2 1 2 3 4 1 1 5 3 5 6 6 3 3 7 8 8 8 8 7 7 7 6 5 4 5 5 4 4 3 4 5 4 4 4 3 3 3 3 3 3 4 4 4
1 1 3 5 3 1 3 1 4 4 4 7 9 10 9 9 8 8 8 7 6 6 5 4 4 4 4 3 2 3 4 4 4 3 2 3 3 3 3 3 3 4 4 5
4 4 4 3 2 2 2 3 3 4 6 11 11 10 9 8 8 8 7 6 5 5 5 4 3 3 3 1 2 4 4 3 3 3 3 2 2 2 2 2 2 3 4 5
1 2 2 3 3 4 4 3 4 6 9 10 10 10 10 9 7 6 6 5 4 4 4 3 2 2 1 1 3 4 4 2 2 2 1 1 1 0 0 1 1 2 3 5
2 2 2 3 4 4 5 7 9 8 8 9 12 11 10 8 7 6 5 4 3 4 3 2 2 3 2 1 3 4 3 2 1 1 0 1 1 1 1 2 2 2 2 3
4 3 2 1 1 3 5 6 8 10 9 9 10 11 10 7 5 5 4 3 3 3 3 2 2 3 3 2 3 4 2 1 1 1 1 1 2 2 3 3 4 4 4 5
3 0 1 2 3 4 5 7 8 9 10 11 9 9 8 6 4 4 4 3 3 2 2 1 2 2 2 1 3 3 2 2 1 1 1 1 1 1 3 4 5 5 6 8
2 2 2 2 3 5 8 10 11 11 10 10 9 8 7 5 4 4 3 2 2 2 2 1 1 2 2 0 1 2 2 2 2 1 1 1 1 1 1 1 3 4 5 7
0 2 4 6 7 8 9 11 12 10 10 9 7 7 6 5 4 3 2 3 3 3 2 1 2 2 2 1 2 2 2 2 2 1 1 1 1 0 0 1 1 2 4 5
4 6 8 10 10 10 10 11 11 9 8 7 6 5 5 4 4 3 3 3 4 2 1 2 2 4 3 2 2 2 2 4 3 2 1 0 0 0 1 1 1 2 3 4
8 8 9 10 10 9 8 8 8 7 7 6 5 5 5 5 5 4 4 3 3 2 2 2 4 5 4 3 2 2 1 1 2 1 1 1 1 0 0 0 1 2 3 4
6 7 9 10 10 9 8 8 7 7 6 5 6 6 6 6 6 4 4 4 3 3 3 4 5 5 4 3 1 0 0 0 1 1 1 1 1 1 1 1 1 2 2 4
9 10 9 9 8 8 7 6 6 6 6 7 7 6 5 5 5 5 3 4 3 2 4 5 7 5 4 4 2 1 2 2 2 2 2 2 2 2 2 1 2 2 3 3
8 9 9 8 8 8 7 6 7 6 6 7 7 7 6 5 5 4 4 2 0 2 4 5 4 4 4 4 4 3 3 3 3 3 2 2 2 2 2 3 3 3 3 4
9 9 9 8 7 7 7 8 8 7 6 7 7 7 6 4 4 4 3 1 3 3 3 5 3 3 3 3 4 3 3 3 3 3 3 3 3 3 3 4 4 4 4 4
8 8 8 8 8 7 6 6 7 8 7 6 6 6 6 5 4 3 2 0 2 2 2 2 3 3 4 5 4 4 4 4 3 3 3 3 3 3 4 4 4 4 4 4
7 7 8 8 8 7 6 6 8 8 7 7 7 6 5 4 3 3 1 1 1 1 2 2 2 5 7 5 4 4 4 4 4 3 3 3 3 3 4 4 4 4 4 4
7 8 7 7 8 7 6 5 5 5 6 5 5 6 6 4 2 0 1 1 1 1 1 1 5 7 6 4 4 4 4 4 4 4 4 4 4 4 4 4 4 4 4 5
8 8 8 9 8 6 6 6 6 5 5 3 3 4 3 3 3 3 2 1 2 1 1 2 5 6 4 3 3 3 3 3 3 3 4 4 4 4 4 4 4 4 4 4
7 7 7 7 6 6 6 5 4 4 4 3 2 2 3 3 3 3 2 2 2 2 2 2 2 3 3 3 3 3 3 4 4 4 4 4 4 4 4 4 5 4 4 4
8 6 5 5 4 5 6 6 5 5 5 4 3 3 3 4 3 3 3 2 2 2 2 2 2 3 3 3 3 3 3 3 4 4 4 4 4 4 4 4 3 3 3 4
Wind_Direction
46 29 62 52 15 15 55 151 158 163 149 152 135 120 111 107 102 93 83 75 71 68 64 65 67 67 70 71 72 80 84 83 82 82 81 80 77 75 73 72 75 74 73 63
22 29 60 39 15 24 30 26 117 127 126 112 107 105 104 107 112 102 91 86 83 80 76 72 75 79 79 77 76 80 84 84 84 83 81 78 74 71 67 60 54 54 51 45
297 334 45 348 333 14 54 7 156 161 142 129 105 89 85 93 104 105 99 95 91 86 82 79 79 86 86 84 82 81 82 85 85 87 86 80 79 70 62 53 47 43 34 32
118 103 211 251 12 96 91 53 81 113 116 109 104 87 63 63 89 96 96 95 94 93 89 81 80 79 81 79 81 84 84 88 90 90 86 78 71 63 51 42 38 31 31 29
115 134 124 234 285 214 112 60 59 117 118 114 117 93 62 55 74 84 89 93 92 93 93 87 80 80 83 78 79 85 88 91 91 90 85 75 63 49 38 40 36 31 29 21
117 153 216 234 332 48 97 109 205 142 143 145 134 120 120 92 88 89 90 92 94 92 88 82 72 76 84 83 82 83 88 89 87 89 88 78 63 48 37 46 39 28 19 3
112 174 271 314 320 31 161 233 180 156 156 151 126 113 119 109 98 97 97 95 93 89 82 75 72 82 84 83 83 87 95 91 88 86 86 80 66 53 52 50 39 23 8 349
98 142 262 327 354 177 216 79 103 127 133 122 111 111 112 110 107 105 102 95 92 89 77 63 68 85 88 82 81 90 95 94 88 81 79 86 82 67 54 49 38 17 1 352
195 218 266 320 356 11 81 89 96 113 122 128 128 128 121 115 110 103 100 91 82 85 72 46 47 92 106 132 125 114 108 106 99 85 68 77 93 83 53 37 27 5 358 350
274 284 322 2 21 29 41 74 100 121 130 132 130 129 122 118 111 103 97 89 85 86 77 48 31 63 153 190 153 136 133 130 119 100 68 45 55 102 92 341 346 347 346 341
291 297 358 18 30 51 76 92 100 103 112 123 126 125 123 119 114 107 99 87 86 90 84 55 37 36 29 96 135 131 135 141 127 105 287 314 311 267 258 249 241 281 307 313
231 246 205 260 55 89 102 108 116 116 110 114 121 122 121 116 111 108 102 95 89 86 79 54 45 34 28 72 123 130 140 174 207 243 288 308 322 325 308 292 304 304 302 303
220 188 133 112 83 87 103 109 110 112 120 119 116 118 116 110 108 107 107 112 115 113 99 82 60 28 15 81 128 149 182 209 221 238 269 299 315 330 331 340 355 3 350 345
179 135 125 124 114 109 111 110 106 104 107 111 113 111 107 104 107 117 133 149 141 126 113 98 58 357 340 47 156 187 212 224 211 224 239 255 267 282 303 338 346 341 338 338
207 161 141 120 112 111 113 114 111 109 109 105 107 112 116 122 132 142 144 132 115 104 85 48 8 325 313 263 226 230 230 232 221 213 213 226 249 295 8 6 354 335 335 337
105 111 120 123 123 123 121 120 118 118 117 112 115 123 129 131 127 121 122 127 120 109 42 5 325 302 294 254 241 248 248 238 209 194 186 162 93 57 44 25 355 339 339 337
131 134 134 132 130 127 125 123 123 124 122 124 132 129 120 115 108 103 94 92 99 85 32 343 309 305 307 287 260 251 249 243 187 149 148 148 126 86 55 10 330 324 325 330
137 135 137 135 133 126 121 119 121 124 129 136 131 126 127 128 128 123 110 97 83 51 8 333 317 319 326 329 317 267 172 132 116 124 126 124 110 86 63 16 341 334 335 343
120 123 122 122 124 122 122 125 129 130 131 130 128 128 125 124 123 120 108 96 82 29 328 328 335 345 347 356 30 75 90 92 83 73 84 96 84 65 55 38 21 8 1 1
121 124 124 121 120 121 124 127 125 121 125 125 120 117 116 120 123 119 105 89 21 286 305 328 343 356 5 21 53 66 75 81 81 77 76 78 76 64 54 52 50 38 27 18
134 131 128 126 126 127 131 133 129 128 130 132 134 137 137 131 126 119 107 67 325 333 344 356 6 5 18 46 57 64 69 73 74 73 77 80 80 72 64 58 52 42 30 19
142 139 136 132 129 128 132 133 132 130 125 124 125 127 128 129 124 98 87 190 306 348 11 4 8 37 61 62 56 61 65 68 67 69 73 78 83 81 72 65 53 40 28 17
146 144 140 139 139 135 128 131 135 137 139 144 147 149 149 149 144 136 155 278 311 15 22 8 52 73 72 62 58 59 62 64 64 67 72 76 80 84 81 71 54 39 26 17
146 146 143 135 126 125 132 142 138 140 146 150 154 152 143 134 126 122 164 158 149 93 27 37 83 83 74 65 62 61 60 64 68 72 76 78 80 80 78 72 59 42 30 24
145 141 136 135 138 145 144 132 119 120 125 123 129 137 139 142 149 163 149 133 127 88 29 52 88 85 76 71 68 66 63 69 80 82 80 83 83 82 76 67 56 43 32 24
144 148 152 157 153 145 138 132 131 139 135 131 132 133 126 115 117 121 121 112 105 78 58 58 76 79 78 76 75 75 73 75 76 76 83 87 88 85 77 68 58 45 34 25
135 133 130 125 129 140 142 142 145 157 163 159 160 159 146 137 134 136 128 108 86 62 68 75 80 87 87 84 80 78 78 81 82 84 86 86 86 84 80 75 62 49 38 31